Weather in Grafovka

Russia / Belgorod Oblast     50°24′17″N   36°44′24″E
temp.,
°C
wind,
m/s
gust,
m/s
humid.,
%
clouds,
%
prec.,
mm/h
press.,
hPa
HPBL,
m
8 may, sat
sat800:00+10sse61469100 0.0 1014328
03:00+11sse71765100 0.0 1012578
06:00+10sse51281100 0.6 1011411
09:00+11sse71784100 1.1 1009670
12:00+11s91789100 0.8 1007842
15:00+12ssw81594100 6.8 1007812
18:00+12wsw61087100 0.4 1007839
21:00+7w81389100 0.4 1010724
9 may, sun
sun900:00+5wnw71392100 0.0 1012812
03:00+6wnw61183100 0.1 10141052
06:00+5nw5984100 0.0 1016839
09:00+7nw71166100 0.0 10171067
12:00+11nw8105069 0.0 10182015
15:00+11nnw81050100 0.1 10202130
18:00+10nnw7106151 0.2 10211427
21:00+6nnw39754 0.2 1024209
10 may, mon
mon1000:00+4nnw37835 0.0 1025135
03:00+3nw38873 0.0 1027166
06:00+4nnw411821 0.0 1028273
09:00+10n610600 0.0 1027887
12:00+13n810465 0.0 10261863
15:00+14n912465 0.0 10252043
18:00+12n81358100 0.0 10241619
21:00+10n81458100 0.0 10241073
11 may, tue
tue1100:00+10nne91659100 0.0 1022835
03:00+10nne81661100 0.0 1021710
06:00+9nne81771100 0.0 1020645
09:00+8ne81785100 0.6 1021729
12:00+10ne8148897 0.1 1021896
15:00+12e71175100 0.3 10211434
18:00+13e613675 0.0 10221654
21:00+9ene51377100 0.0 1022577
12 may, wed
wed1200:00+7e412845 0.0 1022363
03:00+6ene4118565 0.0 1021361
06:00+8e5138392 0.0 1020717
09:00+9ese71588100 0.7 10201320
12:00+11se61182100 0.2 1020958
15:00+10se61289100 1.1 10201112
18:00+9ese3996100 3.8 1019417
21:00+9ne2698100 6.7 1017206